Oak Ridge, TN

6:07 AM EDT on May 26, 2017 (GMT -0400)
Oak Ridge

Weather History for KOQT - March, 2014

Change the Weather History Date:

Friday, March 21, 2014

  Actual Average (KTYS) Record (KTYS)
Temperature  
Mean Temperature 48 °F -  
Max Temperature 68 °F 61 °F 86 °F (1907)
Min Temperature 30 °F 40 °F 18 °F (1965)
Degree Days  
Heating Degree Days 17    
Moisture  
Dew Point 26 °F    
Average Humidity 47    
Maximum Humidity 85    
Minimum Humidity 15    
Precipitation  
Precipitation 0.00 in - - ()
Sea Level Pressure  
Sea Level Pressure 30.10 in    
Wind  
Wind Speed 2 mph (SW)    
Max Wind Speed 10 mph    
Max Gust Speed 20 mph    
Visibility 10 miles    
Events      
Averages and records for this station are not official NWS values.
T = Trace of Precipitation, MM = Missing Value Source: NWS Daily Summary

Daily Weather History Graph

Daily Weather History Graph

Search for Another Location

Airport or City:

Trip Planner

Search our weather history database for the weather conditions in past years. The results will help you decide how hot, cold, wet, or windy it might be!

Date:

Astronomy

Mar. 21, 2014 Rise Set
Actual Time 7:39 AM EDT 7:49 PM EDT
Civil Twilight 7:13 AM EDT 8:15 PM EDT
Nautical Twilight 6:43 AM EDT 8:45 PM EDT
Astronomical Twilight 6:13 AM EDT 9:15 PM EDT
Moon No Moon Rise 10:38 AM EDT (3/21)
Length of Visible Light 13h 01m
Length of Day
12h 10m
Waning Gibbous, 75% of the Moon is Illuminated
Mar 21
Waning Gibbous
Mar 23
Last Quarter
Mar 30
New
Apr 7
First Quarter
Apr 15
Full

Hourly Weather History & Observations

Time (EDT) Temp. Dew Point Humidity Pressure Visibility Wind Dir Wind Speed Gust Speed Precip Events Conditions
12:53 AM 39.0 °F 28.9 °F 67% 30.15 in 10.0 mi Calm Calm - N/A   Clear
1:53 AM 37.0 °F 28.9 °F 73% 30.15 in 10.0 mi Calm Calm - N/A   Clear
2:53 AM 36.0 °F 28.9 °F 76% 30.15 in 10.0 mi Calm Calm - N/A   Clear
3:53 AM 34.0 °F 28.0 °F 79% 30.14 in 10.0 mi Calm Calm - N/A   Clear
4:53 AM 33.1 °F 28.0 °F 82% 30.15 in 10.0 mi Calm Calm - N/A   Clear
5:53 AM 32.0 °F 28.0 °F 85% 30.16 in 10.0 mi Calm Calm - N/A   Clear
6:53 AM 30.9 °F 27.0 °F 85% 30.16 in 10.0 mi Calm Calm - N/A   Clear
7:53 AM 30.9 °F 27.0 °F 85% 30.18 in 10.0 mi Calm Calm - N/A   Clear
8:53 AM 36.0 °F 30.0 °F 79% 30.19 in 10.0 mi Calm Calm - N/A   Clear
9:53 AM 43.0 °F 30.0 °F 60% 30.20 in 10.0 mi Calm Calm - N/A   Clear
10:53 AM 52.0 °F 28.9 °F 41% 30.18 in 10.0 mi Calm Calm - N/A   Clear
11:53 AM 57.0 °F 27.0 °F 32% 30.15 in 10.0 mi Variable 3.5 mph - N/A   Clear
12:53 PM 61.0 °F 27.0 °F 27% 30.13 in 10.0 mi SW 3.5 mph - N/A   Clear
1:53 PM 64.9 °F 23.0 °F 20% 30.11 in 10.0 mi Variable 6.9 mph - N/A   Clear
2:53 PM 66.0 °F 21.0 °F 18% 30.07 in 10.0 mi South 10.4 mph 19.6 mph N/A   Clear
3:53 PM 66.9 °F 21.9 °F 18% 30.04 in 10.0 mi SW 8.1 mph - N/A   Clear
4:53 PM 66.9 °F 18.0 °F 15% 30.01 in 10.0 mi SW 9.2 mph - N/A   Clear
5:53 PM 66.9 °F 21.9 °F 18% 30.00 in 10.0 mi Variable 5.8 mph - N/A   Clear
6:53 PM 66.0 °F 23.0 °F 20% 30.00 in 10.0 mi Variable 3.5 mph - N/A   Clear
7:53 PM 63.0 °F 25.0 °F 24% 30.01 in 10.0 mi WSW 3.5 mph - N/A   Clear
8:53 PM 61.0 °F 26.1 °F 26% 30.02 in 10.0 mi WSW 4.6 mph - N/A   Clear
9:53 PM 60.1 °F 26.1 °F 27% 30.03 in 10.0 mi Variable 4.6 mph - N/A   Clear
10:53 PM 57.9 °F 26.1 °F 30% 30.02 in 10.0 mi WSW 3.5 mph - N/A   Clear
11:53 PM 55.0 °F 27.0 °F 34% 30.01 in 10.0 mi Calm Calm - N/A   Clear